Showing default

YUNHAI 2-1E, 43913

Orbit data source: Space-Track

YUNHAI 2-1E, 43913 is a payload satellite owned by CASC (CN) in LEO that was launched on Sat, 29 Dec 2018 UTC via a CHANG ZHENG 2D/YZ-3 launch vehicle from the Jiuquan Satellite Launch Center, China (JSC). Payload-class satellites include a variety of spacecraft equipped with specific instruments for various scientific and technological missions. These include communications satellites like Starlink; space stations such as the ISS; scientific satellites like the Hubble; Earth observation satellites from companies like Planet Labs, Umbra, and HawkEye 360; GPS; miniature CubeSats for education and research; and military/defense satellites.

Loading next visibility...
Identifier
43913, 2018-112E
Orbit
LEO
Country
Flag of CNCN / PRC
Related business
Manufacturer
DFH Shenzhen
Mission
Operational Defense Meteo Radio Occ.
Bus & Motor
YH-2, Unknown motor
Mass
~100 kg wet, ~100 kg dry
Launch date (UTC)
2018-12-29 (7 years ago)
Launch vehicle
CHANG ZHENG 2D/YZ-3
Launch site
Jiuquan Satellite Launch Center, China (JSC)
Object type
Payload
Rocket body
Debris
Shape & HBR
Box + 2 Pan, 0.5 m
Radar Cross Section
0.166 m², Large (>1 m²)

Expand to show TLE details & history
Last TLE update: 14 hours ago

TLE from 14 hours ago
0 YUNHAI 2-1E
1 43913U 18112E   26124.79429829  .00000113  00000-0  10764-3 0  9994
2 43913  50.0085 350.9469 0004916 212.1536 147.9080 14.28993814382951
Epoch: 2026-05-04T19:03Z
TLE epoch observation values (Epoch: 2026-05-04T19:03:47.372Z)
Latitude
-0.00001°
Longitude
-157.67887°
Altitude
798.616 km
Speed
7.454 km/s
True Right ascension
23h 23m 47s
True Declination
0° 00' 00"
Sunlit
Object was in daylight at epoch
Visualization orbit readout
Latitude
Unknown
Longitude
Unknown
Altitude
Unknown
Speed
Unknown
Apparent Right ascension
Unknown
Apparent Declination
Unknown
Sunlit
N/A
Visualization observer readout
Local Sidereal Time
16:30:51
Azimuth
Unknown
Elevation
Unknown
Doppler factor
Unknown
Orbital elements
Apogee altitude
799.361 km
Perigee altitude
792.308 km
Semi-major axis
7,173.971 km
Eccentricity
0.00049
Inclination
50.0085°
RAAN
350.9469°
Arg. of periapsis
212.1536°
True anomaly
147.93791°
Mean anomaly
147.908°
Eccentric anomaly
147.92296°
Mean motion
3.57194 °/min
Orbital period
100.79 mins
BSTAR
0.00010764
Loading maneuver chart data...
Computing Atmospheric mass density...
Loading historical data...
Loading historical data...
Loading historical data...
Loading historical data...
Loading historical data...
Loading historical data...
Loading historical data...

Documentation

Showing up to 5 results
|